This demonstration page uses our WeatherBlox Daily Observations layout. Learn more.

Left ArrowRight Arrow

53.62937, 11.41316

Hourly Observations for March 18, 2018

Temp ( °F °C ) Dew Point ( °F °C ) Humidity (%) Winds ( mph kmh ) Pressure ( in mb ) Visibility ( mi km ) Precip ( " mm )
6:50 am 06:50 Mostly Sunny 23 -5 7 -14 50 50 E 17 28 30.12 1020 7 11 N/A
7:20 am 07:20 Mostly Sunny 23 -5 7 -14 50 50 E 16 26 30.15 1021 7 11 N/A
7:50 am 07:50 Mostly Sunny 25 -4 7 -14 46 46 E 16 26 30.15 1021 7 11 N/A
8:20 am 08:20 Mostly Sunny 25 -4 7 -14 46 46 E 21 33 30.15 1021 7 11 N/A
8:50 am 08:50 Mostly Sunny 25 -4 7 -14 46 46 E 16 26 30.15 1021 7 11 N/A
9:20 am 09:20 Mostly Sunny 27 -3 5 -15 39 39 E 17 28 30.15 1021 7 11 N/A
9:50 am 09:50 Mostly Sunny 28 -2 5 -15 37 37 E 20 31 30.15 1021 7 11 N/A
10:20 am 10:20 Mostly Sunny 28 -2 3 -16 34 34 E 18 30 30.15 1021 7 11 N/A
10:50 am 10:50 Mostly Sunny 30 -1 3 -16 31 31 E 20 31 30.15 1021 7 11 N/A
11:20 am 11:20 Mostly Sunny 32 0 3 -16 29 29 E 18 30 30.15 1021 7 11 N/A
11:50 am 11:50 Mostly Sunny 32 0 3 -16 29 29 ENE 20 31 30.15 1021 7 11 N/A
12:20 pm 12:20 Mostly Sunny 32 0 3 -16 29 29 E 16 26 30.15 1021 7 11 N/A
12:50 pm 12:50 Mostly Sunny 32 0 1 -17 27 27 E 18 30 30.12 1020 7 11 N/A
1:20 pm 13:20 Mostly Sunny 32 0 1 -17 27 27 E 18 30 30.12 1020 7 11 N/A
1:50 pm 13:50 Mostly Sunny 34 1 3 -16 27 27 E 20 31 30.12 1020 7 11 N/A
2:20 pm 14:20 Mostly Sunny 34 1 5 -15 29 29 E 20 31 30.12 1020 7 11 N/A
2:50 pm 14:50 Mostly Sunny 34 1 5 -15 29 29 ENE 21 33 30.12 1020 7 11 N/A
3:20 pm 15:20 Mostly Sunny 34 1 5 -15 29 29 E 18 30 30.09 1019 7 11 N/A
3:50 pm 15:50 Mostly Sunny 32 0 5 -15 32 32 E 20 31 30.09 1019 7 11 N/A
4:20 pm 16:20 Mostly Sunny 34 1 9 -13 35 35 E 15 24 30.09 1019 7 11 N/A
4:50 pm 16:50 Mostly Sunny 32 0 12 -11 44 44 ENE 17 28 30.09 1019 7 11 N/A
5:20 pm 17:20 Mostly Sunny 32 0 12 -11 44 44 ENE 18 30 30.09 1019 7 11 N/A
5:50 pm 17:50 Mostly Sunny 30 -1 10 -12 43 43 E 14 22 30.09 1019 7 11 N/A
6:20 pm 18:20 Mostly Sunny 30 -1 12 -11 47 47 E 14 22 30.09 1019 7 11 N/A

Powered by AerisWeather